Stations météo

Publicité
Colmar, France (7197): Température de l'air & dewpoint: 21.06.2019 12:00:00 - 27.06.2019 12:00:00 (CEST)Colmar, France (7197): Température de l'air 5cm: 21.06.2019 12:00:00 - 27.06.2019 12:00:00 (CEST)Colmar, France (7197): Température de l'air -20cm & Température de l'air -100cm: 21.06.2019 12:00:00 - 27.06.2019 12:00:00 (CEST)Colmar, France (7197): Vitesse du vent & gusts: 21.06.2019 12:00:00 - 27.06.2019 12:00:00 (CEST)Colmar, France (7197): Direction du vent: 21.06.2019 12:00:00 - 27.06.2019 12:00:00 (CEST)Colmar, France (7197): reduced air pressure: 21.06.2019 12:00:00 - 27.06.2019 12:00:00 (CEST)Colmar, France (7197): visibility: 21.06.2019 12:00:00 - 27.06.2019 12:00:00 (CEST)Colmar, France (7197): Ensoleillement: 21.06.2019 12:00:00 - 27.06.2019 12:00:00 (CEST)Colmar, France (7197): Quantités de précipitations: 21.06.2019 12:00:00 - 27.06.2019 12:00:00 (CEST)
Date & Time tt [°C] td [°C] tt 5cm [°C] tt -20cm [°C] tt -100cm [°C] ff [km/h] ff [knt] fx [km/h] fx [knt] dd ppp [hPa] vv [km] sd [min] rr [mm]
27.06.2019 12:00:00 29,3 21,5 31,6 27,6 20,7 15 8 30 16 NNE 1022,0 16 60 0,0
27.06.2019 11:00:00 28,9 21,4 29,7 27,3 20,6 10 6 22 12 NNE 1021,9 18 60 0,0
27.06.2019 10:00:00 27,4 20,2 28,6 27,2 20,6 10 6 20 11 NNE 1022,3 19 60 0,0
27.06.2019 09:00:00 26,6 20,2 26,5 27,3 20,6 8 5 16 9 NNE 1022,3 19 60 0,0
27.06.2019 08:00:00 25,0 19,6 24,2 27,5 20,6 8 4 13 7 NE 1022,2 19 60 0,0
27.06.2019 07:00:00 23,3 19,5 21,1 27,7 20,6 5 3 11 6 NNE 1022,3 16 60 0,0
27.06.2019 06:00:00 21,9 18,9 17,8 28,1 20,5 6 3 10 5 NNE 1022,2 16 0 0,0
27.06.2019 05:00:00 20,1 19,3 17,8 28,4 20,5 4 2 6 3 N 1022,0 13 0 0,0
27.06.2019 04:00:00 20,5 19,7 18,2 28,8 20,5 4 2 6 4 N 1021,8 7 0 0,0
27.06.2019 03:00:00 21,0 19,8 18,6 29,1 20,4 0 0 0 0 N 1021,3 8 0 0,0
27.06.2019 02:00:00 21,4 20,2 19,0 29,5 20,4 0 0 4 2 N 1021,2 16 0 0,0
27.06.2019 01:00:00 21,9 20,2 19,7 29,9 20,4 0 0 3 2 N 1020,8 13 0 0,0
27.06.2019 00:00:00 23,3 21,0 20,7 30,2 20,4 0 0 4 2 N 1020,9 9 0 0,0
26.06.2019 23:00:00 24,5 21,4 21,8 30,6 20,4 0 0 4 2 N 1020,6 19 0 0,0
26.06.2019 22:00:00 27,1 21,6 23,5 30,8 20,3 3 1 6 3 N 1020,2 17 5 0,0
26.06.2019 21:00:00 31,1 21,6 30,4 30,9 20,3 5 3 6 4 NNE 1019,6 20 60 0,0
26.06.2019 20:00:00 33,5 20,3 35,1 30,9 20,3 5 3 14 8 NNE 1019,2 20 60 0,0
26.06.2019 19:00:00 34,7 20,7 36,9 30,8 20,3 9 5 16 9 N 1019,1 20 60 0,0
26.06.2019 18:00:00 35,8 19,3 41,1 30,5 20,2 7 4 14 8 ENE 1019,1 20 60 0,0
26.06.2019 17:00:00 35,8 19,7 41,6 30,0 20,2 9 5 16 8 E 1019,6 20 60 0,0
26.06.2019 16:00:00 35,7 18,8 42,0 29,5 20,2 9 5 18 10 ENE 1020,1 20 60 0,0
26.06.2019 15:00:00 35,0 20,9 39,3 28,8 20,2 9 5 21 11 ENE 1020,4 19 60 0,0
26.06.2019 14:00:00 34,1 19,4 38,5 28,1 20,2 8 5 15 8 N 1021,0 20 60 0,0
26.06.2019 13:00:00 33,2 22,0 36,9 27,3 20,1 5 3 13 7 NNW 1021,3 19 60 0,0
26.06.2019 12:00:00 31,6 22,0 34,1 26,7 20,1 5 3 14 7 N 1021,7 19 60 0,0
26.06.2019 11:00:00 30,0 21,1 31,5 26,4 20,1 6 3 10 5 NE 1021,9 19 60 0,0
26.06.2019 10:00:00 29,6 21,5 29,3 26,1 20,1 2 1 6 3 ENE 1021,8 18 60 0,0
26.06.2019 09:00:00 26,6 21,1 26,3 26,2 20,1 2 1 6 3 WNW 1022,0 20 60 0,0
26.06.2019 08:00:00 24,1 20,0 23,5 26,3 20,0 4 2 6 4 SW 1022,0 19 60 0,0
26.06.2019 07:00:00 21,4 19,5 18,0 26,6 20,0 0 0 4 2 N 1021,9 17 60 0,0
26.06.2019 06:00:00 19,0 18,2 17,4 26,9 20,0 0 0 3 2 N 1021,8 9 0 0,0
26.06.2019 05:00:00 19,7 18,5 17,8 27,3 20,0 3 2 4 2 NW 1021,5 12 0 0,0
26.06.2019 04:00:00 19,9 18,4 18,3 27,6 20,0 0 0 4 2 N 1021,3 18 0 0,0
26.06.2019 03:00:00 20,7 18,8 19,0 27,9 19,9 3 2 5 3 SSE 1021,1 20 0 0,0
26.06.2019 02:00:00 21,4 19,7 19,6 28,2 19,9 3 1 5 3 S 1021,1 19 0 0,0
26.06.2019 01:00:00 22,4 20,5 20,1 28,6 19,9 3 2 7 4 SSW 1020,6 20 0 0,0
26.06.2019 00:00:00 22,7 20,6 20,4 28,9 19,9 3 2 4 2 WSW 1020,3 15 0 0,0
25.06.2019 23:00:00 25,6 21,1 21,8 29,2 19,9 4 2 8 5 NNE 1019,4 9 0 0,0
25.06.2019 22:00:00 27,1 22,3 23,4 29,4 19,8 5 3 7 4 NE 1018,8 20 0 0,0
25.06.2019 21:00:00 30,0 21,9 28,3 29,5 19,8 3 2 9 5 NNE 1018,0 20 36 0,0
25.06.2019 20:00:00 32,1 21,3 34,0 29,5 19,8 6 3 13 7 NNE 1017,5 20 60 0,0
25.06.2019 19:00:00 33,5 19,9 35,6 29,3 19,8 9 5 17 9 N 1017,1 20 60 0,0
25.06.2019 18:00:00 35,0 15,8 37,2 29,0 19,8 4 2 11 6 NNE 1017,1 20 45 0,0
25.06.2019 17:00:00 35,5 17,7 40,2 28,4 19,8 4 2 16 8 NNE 1017,0 20 60 0,0
25.06.2019 16:00:00 34,6 19,0 41,4 27,8 19,7 6 3 17 9 E 1017,4 20 60 0,0
25.06.2019 15:00:00 33,6 19,3 37,7 27,1 19,7 4 2 17 9 E 1017,7 19 60 0,0
25.06.2019 14:00:00 32,1 20,0 37,4 26,3 19,7 8 5 15 8 NE 1018,1 20 60 0,0
25.06.2019 13:00:00 31,2 20,5 35,9 25,7 19,7 5 3 16 8 ESE 1018,3 18 60 0,0
25.06.2019 12:00:00 29,7 19,4 32,9 25,0 19,7 9 5 18 10 E 1018,5 20 60 0,0
25.06.2019 11:00:00 28,8 19,4 28,3 24,6 19,7 5 3 16 9 SE 1018,5 19 60 0,0
25.06.2019 10:00:00 26,3 19,2 25,9 24,5 19,7 8 4 16 8 SSW 1018,6 20 60 0,0
25.06.2019 09:00:00 24,3 18,5 23,4 24,5 19,6 9 5 16 9 SSW 1018,4 20 60 0,0
25.06.2019 08:00:00 22,0 18,0 20,9 24,7 19,6 7 4 11 6 SSW 1018,2 20 60 0,0
25.06.2019 07:00:00 19,1 17,1 16,1 25,0 19,6 2 1 5 3 SE 1018,0 20 46 0,0
25.06.2019 06:00:00 17,5 16,0 16,0 25,2 19,6 0 0 9 5 N 1017,6 19 0 0,0
25.06.2019 05:00:00 17,4 16,4 15,6 25,6 19,6 6 4 8 5 S 1017,2 20 0 0,0
25.06.2019 04:00:00 17,5 16,5 15,8 25,9 19,6 0 0 5 3 N 1017,2 19 0 0,0
25.06.2019 03:00:00 17,9 16,8 15,7 26,3 19,6 3 2 5 3 SW 1017,4 15 0 0,0
25.06.2019 02:00:00 18,4 17,1 16,0 26,6 19,5 0 0 4 2 N 1017,5 18 0 0,0
25.06.2019 01:00:00 19,3 17,8 16,9 27,0 19,6 0 0 2 1 N 1017,2 20 0 0,0
25.06.2019 00:00:00 20,5 18,3 18,2 27,3 19,5 0 0 4 2 N 1017,1 20 0 0,0
24.06.2019 23:00:00 21,8 19,0 19,5 27,6 19,5 3 2 4 2 SW 1016,8 20 0 0,0
24.06.2019 22:00:00 24,0 19,9 21,4 27,9 19,5 0 0 8 4 N 1016,5 17 5 0,0
24.06.2019 21:00:00 27,2 19,3 26,4 28,0 19,5 5 3 8 5 NE 1016,0 20 25 0,0
24.06.2019 20:00:00 29,1 18,5 29,4 28,0 19,5 5 3 12 6 NE 1015,7 20 28 0,0
24.06.2019 19:00:00 30,9 18,3 34,4 27,8 19,5 8 4 16 9 NE 1015,5 20 60 0,0
24.06.2019 18:00:00 31,6 17,1 36,7 27,4 19,5 5 3 15 8 E 1015,6 20 60 0,0
24.06.2019 17:00:00 31,4 18,0 35,9 26,9 19,5 6 3 17 9 ENE 1015,8 20 60 0,0
24.06.2019 16:00:00 30,9 17,6 36,3 26,2 19,5 7 4 16 9 N 1016,0 20 60 0,0
24.06.2019 15:00:00 30,1 18,5 35,3 25,4 19,5 5 3 16 8 NNW 1016,4 20 60 0,0
24.06.2019 14:00:00 28,9 17,7 33,3 24,6 19,5 8 4 15 8 NNW 1016,7 19 60 0,0
24.06.2019 13:00:00 28,1 19,3 32,5 23,7 19,5 5 3 15 8 N 1016,8 20 60 0,0
24.06.2019 12:00:00 27,5 18,8 28,7 23,0 19,4 4 2 17 9 E 1017,1 20 60 0,0
24.06.2019 11:00:00 25,9 18,8 25,6 22,5 19,4 4 2 12 6 NW 1017,3 20 60 0,0
24.06.2019 10:00:00 24,0 18,2 24,3 22,3 19,5 3 2 9 5 NNW 1017,8 20 60 0,0
24.06.2019 09:00:00 21,9 17,1 22,4 22,2 19,4 4 2 9 5 N 1018,4 20 60 0,0
24.06.2019 08:00:00 19,9 17,3 19,7 22,4 19,4 0 0 5 3 N 1018,5 19 60 0,0
24.06.2019 07:00:00 17,3 16,0 13,6 22,6 19,4 0 0 5 3 N 1018,5 19 40 0,0
24.06.2019 06:00:00 14,6 14,0 12,6 22,9 19,4 0 0 4 2 N 1018,5 12 1 0,2
24.06.2019 05:00:00 14,7 13,9 12,7 23,2 19,4 0 0 5 3 N 1018,1 10 0 0,0
24.06.2019 04:00:00 15,1 14,3 13,2 23,5 19,4 0 0 0 0 N 1018,2 6 0 0,0
24.06.2019 03:00:00 15,8 15,0 13,4 23,9 19,4 0 0 0 0 N 1018,1 8 0 0,0
24.06.2019 02:00:00 16,4 15,4 14,2 24,2 19,4 0 0 2 1 N 1018,1 12 0 0,0
24.06.2019 01:00:00 17,2 15,9 15,4 24,5 19,4 0 0 4 2 N 1017,8 4,4 0 0,0
24.06.2019 00:00:00 18,1 16,6 15,8 24,8 19,4 0 0 5 3 N 1017,6 20 0 0,0
23.06.2019 23:00:00 19,0 16,8 16,8 25,0 19,4 2 1 5 3 SW 1017,3 20 0 0,0
23.06.2019 22:00:00 20,7 17,3 18,5 25,2 19,4 0 0 5 3 N 1016,6 20 0 0,0
23.06.2019 21:00:00 23,9 17,6 23,4 25,3 19,4 5 3 11 6 NNW 1015,9 19 22 0,0
23.06.2019 20:00:00 26,2 17,8 27,1 25,3 19,4 7 4 16 9 NNW 1015,6 20 55 0,0
23.06.2019 19:00:00 25,8 17,4 27,1 25,1 19,4 10 5 18 10 N 1015,3 20 41 0,0
23.06.2019 18:00:00 26,6 17,9 29,6 24,7 19,4 9 5 22 12 N 1015,2 20 60 0,0
23.06.2019 17:00:00 25,8 17,7 28,2 24,2 19,4 8 5 24 13 NNE 1015,7 20 50 0,0
23.06.2019 16:00:00 26,1 18,2 26,7 23,5 19,4 11 6 22 12 N 1015,9 20 46 0,0
23.06.2019 15:00:00 25,3 18,0 26,2 23,0 19,4 11 6 24 13 N 1016,1 20 43 0,0
23.06.2019 14:00:00 23,6 17,3 24,9 22,6 19,4 6 3 16 9 NNW 1016,6 20 5 0,0
23.06.2019 13:00:00 22,7 16,9 24,7 22,2 19,4 10 5 16 9 NNW 1016,7 20 10 0,0
23.06.2019 12:00:00 22,0 16,0 24,3 21,8 19,4 7 4 16 9 N 1016,9 20 15 0,0
23.06.2019 11:00:00 21,9 16,4 21,7 21,5 19,4 6 4 14 8 N 1016,9 20 23 0,0
23.06.2019 10:00:00 20,7 15,9 21,1 21,3 19,4 8 5 18 10 NE 1017,4 19 58 0,0
23.06.2019 09:00:00 18,6 15,8 18,6 21,3 19,4 9 5 14 8 NNE 1017,6 12 34 0,0
23.06.2019 08:00:00 17,0 15,9 16,9 21,4 19,4 5 3 11 6 N 1017,7 6 5 0,0
23.06.2019 07:00:00 16,3 15,5 15,9 21,5 19,4 4 2 10 5 NNE 1017,7 4,3 0 0,0
23.06.2019 06:00:00 15,7 15,1 15,1 21,7 19,4 5 3 11 6 NE 1017,5 4,3 0 0,0
23.06.2019 05:00:00 15,2 14,4 13,5 21,9 19,4 4 2 6 4 N 1017,4 6 0 0,0
23.06.2019 04:00:00 15,3 14,3 13,8 22,2 19,4 3 1 13 7 NNE 1017,2 10 0 0,0
23.06.2019 03:00:00 15,9 14,8 14,2 22,5 19,4 6 3 13 7 NNE 1017,4 16 0 0,0
23.06.2019 02:00:00 15,6 14,6 14,0 22,7 19,3 2 1 7 4 NNW 1017,6 16 0 0,0
23.06.2019 01:00:00 16,6 15,1 16,0 23,0 19,3 6 3 16 9 N 1017,4 19 0 0,0
23.06.2019 00:00:00 17,0 16,0 15,2 23,2 19,3 4 2 7 4 N 1017,3 6 0 0,0
22.06.2019 23:00:00 16,9 15,4 15,2 23,5 19,3 0 0 0 0 N 1017,0 7 0 0,0
22.06.2019 22:00:00 18,4 15,8 17,2 23,6 19,3 0 0 4 2 N 1016,7 11 0 0,0
22.06.2019 21:00:00 20,5 15,9 20,3 23,7 19,3 3 2 11 6 ENE 1016,5 20 7 0,0
22.06.2019 20:00:00 21,6 16,3 22,9 23,7 19,3 5 3 11 6 NNE 1016,3 20 49 0,0
22.06.2019 19:00:00 21,3 16,7 21,4 23,7 19,3 3 1 16 9 ENE 1016,1 20 29 0,0
22.06.2019 18:00:00 20,0 16,2 21,6 23,8 19,3 8 4 18 10 NE 1015,9 19 0 0,0
22.06.2019 17:00:00 20,1 15,7 22,0 23,7 19,3 9 5 19 11 NE 1016,3 19 0 0,0
22.06.2019 16:00:00 20,2 15,4 22,3 23,6 19,3 9 5 17 9 NNE 1016,5 20 0 0,0
22.06.2019 15:00:00 20,6 15,2 22,5 23,4 19,3 11 6 21 11 NNE 1016,6 20 5 0,0
22.06.2019 14:00:00 21,7 15,3 24,6 23,0 19,3 8 4 21 11 N 1016,6 20 33 0,0
22.06.2019 13:00:00 20,6 14,9 22,7 22,7 19,3 9 5 16 8 N 1017,0 20 3 0,0
22.06.2019 12:00:00 19,6 14,6 22,1 22,4 19,2 9 5 21 12 NNE 1017,1 20 28 0,0
22.06.2019 11:00:00 19,2 14,0 19,5 22,2 19,3 12 6 23 13 N 1016,9 20 47 0,0
22.06.2019 10:00:00 17,4 12,5 18,6 22,2 19,3 13 7 27 14 N 1017,3 20 33 0,0
22.06.2019 09:00:00 16,8 12,7 16,4 22,4 19,2 14 8 32 18 N 1017,4 20 18 0,0
22.06.2019 08:00:00 15,8 12,5 14,9 22,7 19,2 18 10 29 16 N 1017,5 20 20 0,0
22.06.2019 07:00:00 14,7 12,4 14,6 23,0 19,2 14 7 27 15 N 1017,5 20 0 0,0
22.06.2019 06:00:00 14,8 12,1 14,4 23,4 19,2 13 7 29 16 N 1017,2 20 0 0,0
22.06.2019 05:00:00 15,3 13,0 14,4 23,8 19,2 10 6 21 11 N 1017,4 20 0 0,8
22.06.2019 04:00:00 15,9 13,9 14,8 24,1 19,2 13 7 22 12 N 1017,7 19 0 0,4
22.06.2019 03:00:00 16,1 14,1 14,9 24,4 19,2 10 6 17 9 N 1017,6 20 0 2,8
22.06.2019 02:00:00 16,6 13,1 14,9 24,8 19,2 2 1 19 11 N 1018,0 7 0 1,6
22.06.2019 01:00:00 19,7 10,1 19,3 25,0 19,2 9 5 20 11 NNE 1017,4 20 0 0,0
22.06.2019 00:00:00 20,0 10,7 19,4 25,3 19,2 9 5 15 8 NE 1017,7 20 0 0,0
21.06.2019 23:00:00 20,3 11,2 19,8 25,6 19,2 8 5 16 9 N 1017,5 20 0 0,0
21.06.2019 22:00:00 21,0 11,3 20,3 25,9 19,2 8 4 15 8 NNE 1017,4 20 5 0,0
21.06.2019 21:00:00 22,5 12,1 22,6 26,0 19,1 8 5 23 12 NNE 1016,8 20 60 0,0
21.06.2019 20:00:00 23,6 12,6 24,9 26,1 19,1 10 5 20 11 NNE 1016,3 20 51 0,0
21.06.2019 19:00:00 24,2 13,1 25,6 26,0 19,1 12 6 24 13 NNE 1015,9 20 37 0,0
21.06.2019 18:00:00 24,9 13,1 27,8 25,7 19,1 11 6 26 14 NNE 1015,8 20 51 0,0
21.06.2019 17:00:00 25,3 13,5 27,3 25,4 19,1 15 8 29 16 N 1016,3 20 46 0,0
21.06.2019 16:00:00 25,0 14,2 26,0 24,9 19,1 11 6 23 13 NNE 1016,3 20 34 0,0
21.06.2019 15:00:00 24,9 14,4 25,9 24,4 19,1 13 7 26 14 NE 1016,6 20 36 0,0
21.06.2019 14:00:00 23,8 14,2 25,5 23,8 19,1 13 7 26 14 NNE 1016,9 20 42 0,0
21.06.2019 13:00:00 23,3 14,0 24,7 23,2 19,1 12 6 24 13 N 1017,2 20 52 0,0
21.06.2019 12:00:00 22,5 14,6 24,9 22,7 19,1 11 6 23 12 NNE 1017,6 20 42 0,0

tt = Température de l'air
td = dewpoint
tt 5cm = Température de l'air 5cm
tt -20cm = Température de l'air -20cm
tt -100cm = Température de l'air -100cm
ff = Vitesse du vent
fx = gusts
dd = Direction du vent
ppp = reduced air pressure
vv = visibility
sd = Ensoleillement
rr = Quantités de précipitations

stations d'obs. à proximité